K7SKM Weather Reports


Display with metric or nautical units.
time (UTC)temp
F
wind
direction
speed
MPH
gust
MPH
rain 1hr
in
rain 24hr
in
rain mn
in
humidity
%
barometer
mb
20260504221820 83 289 1.0 7.0 0.00 0.00 0.00 40 1014.5
20260504221316 82 286 0.0 7.0 0.00 0.00 0.00 40 1014.5
20260504220813 81 274 0.0 7.0 0.00 0.00 0.00 41 1014.4
20260504220310 80 262 3.0 7.0 0.00 0.00 0.00 40 1014.4
20260504215808 79 292 0.0 7.0 0.00 0.00 0.00 41 1014.6
20260504215304 81 279 7.0 10.0 0.00 0.00 0.00 39 1014.7
20260504214800 82 280 7.0 10.0 0.00 0.00 0.00 38 1014.7
20260504214256 82 128 0.0 0.0 0.00 0.00 0.00 40 1014.8
20260504213753 80 196 0.0 10.0 0.00 0.00 0.00 41 1014.7
20260504213249 77 301 3.0 10.0 0.00 0.00 0.00 43 1014.6
20260504212746 79 263 3.0 7.0 0.00 0.00 0.00 39 1014.9
20260504212243 81 287 0.0 0.0 0.00 0.00 0.00 39 1014.9
20260504211741 82 266 0.0 0.0 0.00 0.00 0.00 40 1014.7
20260504211236 80 257 0.0 0.0 0.00 0.00 0.00 40 1014.8
20260504210734 79 221 0.0 10.0 0.00 0.00 0.00 42 1014.9
20260504210231 80 305 0.0 7.0 0.00 0.00 0.00 37 1014.8
20260504205728 79 286 3.0 7.0 0.00 0.00 0.00 37 1014.9
20260504205226 80 220 0.0 0.0 0.00 0.00 0.00 37 1015.0
20260504204724 80 220 0.0 0.0 0.00 0.00 0.00 35 1014.9
20260504204222 81 252 0.0 0.0 0.00 0.00 0.00 34 1014.8
20260504203721 80 253 0.0 0.0 0.00 0.00 0.00 34 1015.0
20260504203218 79 129 3.0 5.0 0.00 0.00 0.00 35 1015.0
20260504202718 78 288 4.0 10.0 0.00 0.00 0.00 36 1015.2
20260504202215 80 260 0.0 0.0 0.00 0.00 0.00 34 1015.0
20260504201712 81 176 0.0 0.0 0.00 0.00 0.00 32 1015.0
20260504201209 80 166 0.0 0.0 0.00 0.00 0.00 33 1015.2
20260504200707 79 133 0.0 3.0 0.00 0.00 0.00 36 1015.2
20260504200203 81 229 0.0 0.0 0.00 0.00 0.00 34 1015.2
20260504195659 80 160 0.0 0.0 0.00 0.00 0.00 33 1015.2
20260504195155 79 164 0.0 3.0 0.00 0.00 0.00 34 1015.2
20260504194653 81 254 0.0 0.0 0.00 0.00 0.00 34 1015.4
20260504194148 81 168 0.0 0.0 0.00 0.00 0.00 34 1015.2
20260504193645 79 219 0.0 0.0 0.00 0.00 0.00 36 1015.4
20260504193143 79 274 0.0 3.0 0.00 0.00 0.00 37 1015.4
20260504192641 79 211 0.0 3.0 0.00 0.00 0.00 37 1015.4
20260504192139 79 193 0.0 0.0 0.00 0.00 0.00 39 1015.4
20260504191637 79 258 0.0 0.0 0.00 0.00 0.00 37 1015.4
20260504191133 78 244 0.0 0.0 0.00 0.00 0.00 38 1015.6
20260504190629 78 202 0.0 0.0 0.00 0.00 0.00 38 1015.6
20260504190126 78 190 0.0 0.0 0.00 0.00 0.00 39 1015.3
20260504185622 77 226 0.0 5.0 0.00 0.00 0.00 42 1015.5
20260504185119 76 306 1.0 5.0 0.00 0.00 0.00 41 1015.6
20260504184614 78 242 0.0 5.0 0.00 0.00 0.00 39 1015.5
20260504184110 78 123 0.0 3.0 0.00 0.00 0.00 41 1015.5
20260504183607 78 234 0.0 5.0 0.00 0.00 0.00 40 1015.5
20260504183105 78 172 0.0 0.0 0.00 0.00 0.00 41 1015.7
20260504182602 79 210 0.0 0.0 0.00 0.00 0.00 39 1015.6
20260504182059 79 201 0.0 0.0 0.00 0.00 0.00 41 1015.7
20260504181556 77 126 0.0 3.0 0.00 0.00 0.00 42 1015.8
20260504181054 76 156 0.0 3.0 0.00 0.00 0.00 43 1015.8
20260504180553 77 150 0.0 0.0 0.00 0.00 0.00 41 1015.5
20260504180052 78 210 0.0 0.0 0.00 0.00 0.00 41 1015.9
20260504175548 75 122 0.0 3.0 0.00 0.00 0.00 45 1015.6
20260504175045 76 137 1.0 5.0 0.00 0.00 0.00 42 1015.6
20260504174543 77 131 0.0 0.0 0.00 0.00 0.00 44 1015.6
20260504174040 76 264 0.0 0.0 0.00 0.00 0.00 44 1015.7
20260504173537 75 214 0.0 5.0 0.00 0.00 0.00 47 1015.8
20260504173034 73 142 1.0 5.0 0.00 0.00 0.00 47 1015.6
20260504172530 75 133 0.0 0.0 0.00 0.00 0.00 46 1015.6
20260504172027 76 157 0.0 0.0 0.00 0.00 0.00 45 1015.6
20260504171524 75 258 0.0 0.0 0.00 0.00 0.00 45 1015.8
20260504171021 76 169 0.0 0.0 0.00 0.00 0.00 45 1015.6
20260504170516 75 130 0.0 0.0 0.00 0.00 0.00 45 1015.6
20260504160437 68 162 0.0 0.0 0.00 0.00 0.00 57 1015.5
20260504150900 57 171 0.0 0.0 0.00 0.00 0.00 73 1015.2
20260504150357 57 124 0.0 0.0 0.00 0.00 0.00 74 1015.3
20260504141327 53 188 0.0 0.0 0.00 0.00 0.00 81 1014.8
20260504140823 53 158 0.0 0.0 0.00 0.00 0.00 81 1015.0
20260504140319 53 154 0.0 0.0 0.00 0.00 0.00 82 1014.9
20260504130748 50 185 0.0 0.0 0.00 0.00 0.00 87 1014.2
20260504130244 50 180 0.0 0.0 0.00 0.00 0.00 87 1014.2
20260504120208 51 197 0.0 0.0 0.00 0.00 0.00 87 1014.0
20260504110635 52 162 0.0 0.0 0.00 0.00 0.00 85 1013.7
20260504110131 52 171 0.0 0.0 0.00 0.00 0.00 85 1013.9
20260504100551 54 148 0.0 0.0 0.00 0.00 0.00 83 1013.8
20260504081945 57 200 0.0 0.0 0.00 0.00 0.00 79 1014.1
20260504081442 57 155 0.0 0.0 0.00 0.00 0.00 79 1014.0
20260504080938 57 201 0.0 0.0 0.00 0.00 0.00 78 1014.0
20260504080435 57 176 0.0 0.0 0.00 0.00 0.00 78 1013.9
20260504070403 59 192 0.0 0.0 0.00 0.00 0.00 75 1013.7
20260504050750 64 180 0.0 0.0 0.00 0.00 0.00 61 1013.9
20260504050248 65 177 0.0 0.0 0.00 0.00 0.00 60 1014.0
20260504045745 65 171 0.0 0.0 0.00 0.00 0.00 59 1013.8
20260504045239 66 183 0.0 0.0 0.00 0.00 0.00 59 1013.9
20260504044737 66 182 0.0 0.0 0.00 0.00 0.00 58 1013.8
20260504044234 66 178 0.0 0.0 0.00 0.00 0.00 57 1013.7
20260504043731 66 196 0.0 0.0 0.00 0.00 0.00 56 1013.6
20260504043228 67 196 0.0 0.0 0.00 0.00 0.00 54 1013.8
20260504042726 68 196 0.0 0.0 0.00 0.00 0.00 53 1013.6
20260504042222 68 197 0.0 0.0 0.00 0.00 0.00 53 1013.6
20260504041718 68 197 0.0 0.0 0.00 0.00 0.00 51 1013.4
20260504041214 69 182 0.0 0.0 0.00 0.00 0.00 50 1013.5
20260504040711 69 203 0.0 0.0 0.00 0.00 0.00 49 1013.5
20260504040208 70 180 0.0 0.0 0.00 0.00 0.00 49 1013.6
20260504035704 70 222 0.0 0.0 0.00 0.00 0.00 47 1013.6
20260504035202 71 222 0.0 0.0 0.00 0.00 0.00 45 1013.4
20260504034659 71 192 0.0 0.0 0.00 0.00 0.00 46 1013.7
20260504034156 72 192 0.0 0.0 0.00 0.00 0.00 46 1013.3
20260504033654 72 233 0.0 0.0 0.00 0.00 0.00 44 1013.4
20260504033151 73 236 0.0 0.0 0.00 0.00 0.00 44 1013.3
20260504032648 73 233 0.0 0.0 0.00 0.00 0.00 43 1013.3
20260504032145 74 252 0.0 0.0 0.00 0.00 0.00 42 1013.4
20260504031642 75 246 0.0 0.0 0.00 0.00 0.00 42 1013.5
20260504031138 75 257 0.0 0.0 0.00 0.00 0.00 40 1013.3
20260504030635 75 236 0.0 7.0 0.00 0.00 0.00 40 1013.4
20260504030131 76 266 0.0 0.0 0.00 0.00 0.00 40 1013.3
20260504025628 76 261 0.0 0.0 0.00 0.00 0.00 39 1013.5
20260504025125 76 252 0.0 3.0 0.00 0.00 0.00 40 1013.3
20260504024623 77 257 0.0 0.0 0.00 0.00 0.00 41 1013.1
20260504024119 77 250 0.0 3.0 0.00 0.00 0.00 40 1013.2
20260504023616 77 277 0.0 0.0 0.00 0.00 0.00 40 1013.2
20260504023111 78 225 0.0 5.0 0.00 0.00 0.00 41 1013.3
20260504022608 78 263 3.0 7.0 0.00 0.00 0.00 40 1013.0
20260504022104 78 243 0.0 0.0 0.00 0.00 0.00 39 1013.2
20260504021602 78 224 0.0 0.0 0.00 0.00 0.00 40 1013.1
20260504021059 78 241 0.0 0.0 0.00 0.00 0.00 41 1013.2
20260504020555 78 257 0.0 0.0 0.00 0.00 0.00 40 1013.1
20260504020052 78 296 1.0 5.0 0.00 0.00 0.00 39 1013.4
20260504015548 79 278 0.0 7.0 0.00 0.00 0.00 38 1013.2
20260504015044 79 341 6.0 10.0 0.00 0.00 0.00 38 1013.4
20260504014541 80 248 0.0 0.0 0.00 0.00 0.00 38 1013.3
20260504014038 80 305 0.0 7.0 0.00 0.00 0.00 37 1013.3
20260504013535 80 289 0.0 3.0 0.00 0.00 0.00 37 1013.5
20260504013032 80 297 4.0 7.0 0.00 0.00 0.00 37 1013.3
20260504012530 80 296 2.0 7.0 0.00 0.00 0.00 37 1013.3
20260504012028 80 285 0.0 0.0 0.00 0.00 0.00 37 1013.4
20260504011524 80 284 0.0 7.0 0.00 0.00 0.00 36 1013.3
20260504011020 81 306 1.0 7.0 0.00 0.00 0.00 36 1013.4
20260504010516 81 262 0.0 10.0 0.00 0.00 0.00 36 1013.5
20260504010012 83 308 7.0 10.0 0.00 0.00 0.00 35 1013.6
20260504005509 84 240 0.0 10.0 0.00 0.00 0.00 34 1013.7
20260504005007 85 257 0.0 5.0 0.00 0.00 0.00 34 1013.5
20260504004504 84 248 0.0 3.0 0.00 0.00 0.00 35 1013.7
20260504004001 83 266 3.0 5.0 0.00 0.00 0.00 35 1013.8
20260504003456 84 274 3.0 12.0 0.00 0.00 0.00 34 1013.5
20260504002954 85 238 0.0 5.0 0.00 0.00 0.00 35 1013.7
20260504002451 86 261 1.0 5.0 0.00 0.00 0.00 34 1013.7
20260504001948 85 254 5.0 12.0 0.00 0.00 0.00 34 1013.7
20260504001446 84 202 0.0 10.0 0.00 0.00 0.00 35 1013.9
20260504000942 84 290 2.0 7.0 0.00 0.00 0.00 34 1013.9
20260504000439 86 238 0.0 0.0 0.00 0.00 0.00 33 1013.9
20260503235936 86 219 0.0 0.0 0.00 0.00 0.00 33 1014.1
20260503235434 84 300 3.0 10.0 0.00 0.00 0.00 36 1014.0
20260503234931 84 260 7.0 12.0 0.00 0.00 0.00 35 1014.3
20260503234429 83 273 5.0 10.0 0.00 0.00 0.00 35 1014.2
20260503233927 84 250 1.0 5.0 0.00 0.00 0.00 35 1014.3
20260503233423 85 280 1.0 5.0 0.00 0.00 0.00 33 1014.1
20260503232919 84 267 0.0 5.0 0.00 0.00 0.00 33 1014.3
20260503232417 85 256 0.0 3.0 0.00 0.00 0.00 33 1014.5
20260503231914 86 241 0.0 5.0 0.00 0.00 0.00 32 1014.7
20260503231411 84 293 6.0 12.0 0.00 0.00 0.00 32 1014.6
20260503230908 85 223 0.0 3.0 0.00 0.00 0.00 32 1014.6
20260503230404 83 247 0.0 3.0 0.00 0.00 0.00 34 1014.6
20260503225902 83 305 1.0 5.0 0.00 0.00 0.00 34 1014.7
20260503225358 82 299 3.0 7.0 0.00 0.00 0.00 35 1014.7
20260503224854 82 296 4.0 7.0 0.00 0.00 0.00 34 1014.9
20260503224351 83 250 0.0 3.0 0.00 0.00 0.00 35 1015.0
20260503223849 82 282 1.0 5.0 0.00 0.00 0.00 35 1015.2
20260503223347 81 291 2.0 12.0 0.00 0.00 0.00 36 1015.0
20260503222842 82 301 6.0 10.0 0.00 0.00 0.00 35 1015.2
20260503222341 83 271 0.0 3.0 0.00 0.00 0.00 35 1015.3